Billings, MT

2:01 PM MDT on June 23, 2017 (GMT -0600)
Billings Logan International

Weather History for KBIL - July, 2014

Change the Weather History Date:

Thursday, July 31, 2014

  Actual Average Record
Temperature  
Mean Temperature 78 °F 74 °F  
Max Temperature 93 °F 89 °F 104 °F (1989)
Min Temperature 62 °F 60 °F 47 °F (1968)
Degree Days  
Heating Degree Days 0 0  
Month to date heating degree days 1 12  
Since 1 June heating degree days 90 111  
Since 1 July heating degree days 1 15  
Cooling Degree Days 13 9  
Month to date cooling degree days 304 256  
Year to date cooling degree days 339 358  
Since 1 June cooling degree days 323 341  
Growing Degree Days 28 (Base 50)    
Moisture  
Dew Point 40 °F    
Average Humidity 33    
Maximum Humidity 48    
Minimum Humidity 17    
Precipitation  
Precipitation T in 0.04 in 0.64 in (1998)
Month to date precipitation 0.34 1.32  
Year to date precipitation 9.92 9.30  
Snow  
Snow 0.00 in 0.00 in T in (1998)
Month to date snowfall 0.0 0.0  
Since 1 June snowfall T 0.0  
Since 1 July snowfall 0.0 0.0  
Snow Depth 0.00 in    
Sea Level Pressure  
Sea Level Pressure 30.03 in    
Wind  
Wind Speed 7 mph (WSW)    
Max Wind Speed 18 mph    
Max Gust Speed 24 mph    
Visibility 10 miles    
Events      
T = Trace of Precipitation, MM = Missing Value Source: NWS Daily Summary

Daily Weather History Graph

Daily Weather History Graph

Search for Another Location

Airport or City:

Trip Planner

Search our weather history database for the weather conditions in past years. The results will help you decide how hot, cold, wet, or windy it might be!

Date:

Astronomy

Jul. 31, 2014 Rise Set
Actual Time 5:56 AM MDT 8:44 PM MDT
Civil Twilight 5:21 AM MDT 9:18 PM MDT
Nautical Twilight 4:37 AM MDT 10:02 PM MDT
Astronomical Twilight 3:45 AM MDT 10:53 PM MDT
Moon 10:43 AM MDT (7/31) 10:40 PM MDT (7/31)
Length of Visible Light 15h 57m
Length of Day
14h 48m
Waxing Crescent, 20% of the Moon is Illuminated
Jul 31
Waxing Crescent
Aug 3
First Quarter
Aug 10
Full
Aug 17
Last Quarter
Aug 25
New

Hourly Weather History & Observations

Time (MDT) Temp. Dew Point Humidity Pressure Visibility Wind Dir Wind Speed Gust Speed Precip Events Conditions
12:53 AM 75.0 °F 36.0 °F 24% 30.03 in 10.0 mi South 4.6 mph - N/A   Clear
1:53 AM 71.1 °F 37.0 °F 29% 30.03 in 10.0 mi East 3.5 mph - N/A   Clear
2:53 AM 70.0 °F 37.0 °F 30% 30.03 in 10.0 mi NNE 3.5 mph - N/A   Clear
3:53 AM 66.2 °F 39.2 °F 37% 30.14 in 10.0 mi SW 5.8 mph - N/A   Clear
4:53 AM 63.0 °F 42.1 °F 46% 30.04 in 10.0 mi SW 8.1 mph - N/A   Partly Cloudy
5:53 AM 64.0 °F 39.0 °F 40% 30.04 in 10.0 mi SW 10.4 mph - N/A   Scattered Clouds
6:53 AM 62.6 °F 39.2 °F 42% 30.14 in 10.0 mi SW 10.4 mph - N/A   Scattered Clouds
7:53 AM 64.9 °F 41.0 °F 42% 30.05 in 10.0 mi SW 12.7 mph - N/A   Scattered Clouds
8:53 AM 66.9 °F 43.0 °F 42% 30.06 in 10.0 mi SW 8.1 mph - N/A   Scattered Clouds
9:53 AM 73.9 °F 45.0 °F 35% 30.05 in 10.0 mi SSW 8.1 mph - N/A   Scattered Clouds
10:53 AM 80.1 °F 45.0 °F 29% 30.04 in 10.0 mi SW 10.4 mph - N/A   Scattered Clouds
11:53 AM 84.0 °F 43.0 °F 24% 30.02 in 10.0 mi SW 9.2 mph - N/A   Scattered Clouds
12:53 PM 88.0 °F 42.1 °F 20% 30.00 in 10.0 mi SSW 11.5 mph - N/A   Scattered Clouds
1:53 PM 90.0 °F 39.0 °F 17% 29.99 in 10.0 mi WSW 10.4 mph - N/A   Scattered Clouds
2:53 PM 90.0 °F 39.0 °F 17% 29.98 in 10.0 mi SSE 4.6 mph - N/A   Scattered Clouds
3:53 PM 89.6 °F 39.2 °F 17% 30.08 in 10.0 mi Calm Calm - N/A   Scattered Clouds
4:53 PM 90.0 °F 43.0 °F 19% 29.96 in 10.0 mi West 11.5 mph - N/A   Scattered Clouds
5:53 PM 87.8 °F 41.0 °F 19% 30.07 in 10.0 mi Calm Calm - N/A   Mostly Cloudy
6:53 PM 88.0 °F 39.0 °F 18% 29.95 in 10.0 mi NW 5.8 mph 24.2 mph N/A   Mostly Cloudy
7:53 PM 86.0 °F 39.2 °F 19% 30.06 in 10.0 mi North 4.6 mph - N/A   Scattered Clouds
8:53 PM 82.0 °F 42.1 °F 24% 29.97 in 10.0 mi NNE 6.9 mph - N/A   Scattered Clouds
9:53 PM 80.1 °F 39.9 °F 24% 29.97 in 10.0 mi NNE 6.9 mph - N/A   Partly Cloudy
10:53 PM 78.8 °F 39.2 °F 24% 30.10 in 10.0 mi NNE 5.8 mph - N/A   Partly Cloudy
11:53 PM 72.0 °F 39.0 °F 30% 30.00 in 10.0 mi North 3.5 mph - N/A   Partly Cloudy